DECAYED
Showing default

ICEYE-X17, 52762 (Decayed)

Orbit data source: Space-Track

ICEYE-X17, 52762 was a payload satellite owned by ICEYE US (US) in LEO that was launched on Wed, 25 May 2022 UTC via an FALCON 9 launch vehicle from the Air Force Eastern Test Range (AFETR). Payload-class satellites include a variety of spacecraft equipped with specific instruments for various scientific and technological missions. These include communications satellites like Starlink; space stations such as the ISS; scientific satellites like the Hubble; Earth observation satellites from companies like Planet Labs, Umbra, and HawkEye 360; GPS; miniature CubeSats for education and research; and military/defense satellites.

Not visible in the next 10 days
Identifier
52762, 2022-057AG
Orbit
Decayed
Country
Flag of USUS
Related business
Manufacturer
ICEYE US
Mission
Decayed Commercial Radar Imaging
Bus & Motor
ICEYE, Unknown motor
Mass
80 kg wet, 80 kg dry
Launch date (UTC)
2022-05-25 (4 years ago)
Launch vehicle
FALCON 9
Launch site
Air Force Eastern Test Range (AFETR)
Object type
Payload
Rocket body
Debris
Shape & HBR
Box + 1 Pan, 1.6 m
Radar Cross Section
1.837 m², Medium (>0.1 m² and < 1m²)

Expand to show TLE details & history
Last TLE update: 4 months ago

TLE from 4 months ago
0 ICEYE-X17
1 52762U 22057AG  25220.12151488  .08347865  26631-5  32938-3 0  9991
2 52762  97.5609  11.6698 0014376 275.8374  84.1287 16.42436510178994
Epoch: 2025-08-08T02:54Z
TLE epoch observation values (Epoch: 2025-08-08T02:54:58.885Z)
Latitude
-0.00006°
Longitude
11.04834°
Altitude
161.63 km
Speed
7.81 km/s
True Right ascension
00h 46m 40s
True Declination
0° 00' 00"
Sunlit
Object was in full shadow at epoch
Visualization orbit readout
Latitude
Unknown
Longitude
Unknown
Altitude
Unknown
Speed
Unknown
Apparent Right ascension
Unknown
Apparent Declination
Unknown
Sunlit
N/A
Visualization observer readout
Local Sidereal Time
13:23:51
Azimuth
Unknown
Elevation
Unknown
Doppler factor
Unknown
Orbital elements
Apogee altitude
165.534 km
Perigee altitude
146.747 km
Semi-major axis
6,534.278 km
Eccentricity
0.00144
Inclination
97.5609°
RAAN
11.6698°
Arg. of periapsis
275.8374°
True anomaly
84.2926°
Mean anomaly
84.1287°
Eccentric anomaly
84.21065°
Mean motion
4.1091 °/min
Orbital period
87.61 mins
BSTAR
0.00032938
Loading maneuver chart data...
Computing Atmospheric mass density...

Documentation

Showing up to 5 results
|